| time (UTC) | temp F | wind direction | speed knots | gust knots | rain 1hr in | rain 24hr in | rain mn in | humidity % | barometer mb |
| 20260903112505 | 45 | 279 | 0.0 | 0.0 | 0.00 | 0.14 | 0.00 | 86 | 1008.4 |
| 20260903111959 | 45 | 279 | 0.0 | 0.0 | 0.00 | 0.14 | 0.00 | 86 | 1008.4 |
| 20260903111453 | 45 | 279 | 0.0 | 0.9 | 0.00 | 0.14 | 0.00 | 86 | 1008.3 |
| 20260903110948 | 45 | 279 | 0.0 | 0.9 | 0.00 | 0.14 | 0.00 | 85 | 1008.3 |
| 20260903110441 | 46 | 281 | 0.0 | 0.0 | 0.00 | 0.14 | 0.00 | 85 | 1008.3 |
| 20260903105938 | 46 | 281 | 0.0 | 0.0 | 0.00 | 0.14 | 0.00 | 85 | 1008.4 |
| 20260903105440 | 46 | 281 | 0.0 | 0.0 | 0.00 | 0.14 | 0.00 | 85 | 1008.4 |
| 20260903104937 | 46 | 280 | 0.0 | 0.0 | 0.00 | 0.14 | 0.00 | 85 | 1008.3 |
| 20260903104436 | 46 | 281 | 0.0 | 0.9 | 0.00 | 0.14 | 0.00 | 85 | 1008.4 |
| 20260903103934 | 46 | 281 | 0.0 | 0.9 | 0.00 | 0.14 | 0.00 | 85 | 1008.5 |
| 20260903103431 | 46 | 281 | 0.0 | 0.9 | 0.00 | 0.14 | 0.00 | 84 | 1008.4 |
| 20260903102929 | 46 | 281 | 0.0 | 0.0 | 0.00 | 0.14 | 0.00 | 84 | 1008.5 |
| 20260903102427 | 46 | 281 | 0.0 | 0.0 | 0.00 | 0.14 | 0.00 | 84 | 1008.4 |
| 20260903101935 | 46 | 281 | 0.0 | 0.0 | 0.00 | 0.14 | 0.00 | 84 | 1008.4 |
| 20260903101431 | 46 | 281 | 0.0 | 0.0 | 0.00 | 0.14 | 0.00 | 84 | 1008.4 |
| 20260903100926 | 46 | 281 | 0.0 | 0.0 | 0.00 | 0.14 | 0.00 | 84 | 1008.4 |
| 20260903100424 | 47 | 281 | 0.0 | 0.0 | 0.00 | 0.14 | 0.00 | 83 | 1008.5 |
| 20260903095921 | 47 | 281 | 0.0 | 0.0 | 0.00 | 0.14 | 0.00 | 83 | 1008.4 |
| 20260903095418 | 47 | 281 | 0.0 | 0.0 | 0.00 | 0.14 | 0.00 | 83 | 1008.4 |
| 20260903094917 | 47 | 281 | 0.0 | 0.0 | 0.00 | 0.14 | 0.00 | 82 | 1008.3 |
| 20260903094417 | 47 | 281 | 0.0 | 0.0 | 0.00 | 0.14 | 0.00 | 82 | 1008.3 |
| 20260903093917 | 48 | 281 | 0.0 | 0.0 | 0.00 | 0.14 | 0.00 | 82 | 1008.2 |
| 20260903093417 | 48 | 281 | 0.0 | 0.9 | 0.00 | 0.14 | 0.00 | 82 | 1008.2 |
| 20260903092912 | 48 | 281 | 0.0 | 0.9 | 0.00 | 0.14 | 0.00 | 82 | 1008.2 |
| 20260903092639 | 48 | 281 | 0.0 | 0.0 | 0.00 | 0.14 | 0.00 | 81 | 1008.2 |
| 20260903091913 | 49 | 281 | 0.0 | 1.7 | 0.00 | 0.14 | 0.00 | 81 | 1008.3 |
| 20260903091412 | 49 | 281 | 0.0 | 1.7 | 0.00 | 0.14 | 0.00 | 80 | 1008.2 |
| 20260903091145 | 49 | 279 | 0.0 | 1.7 | 0.00 | 0.14 | 0.00 | 80 | 1008.4 |
| 20260903090414 | 49 | 279 | 0.0 | 1.7 | 0.00 | 0.14 | 0.00 | 79 | 1008.3 |
| 20260903085914 | 49 | 279 | 0.0 | 0.0 | 0.00 | 0.14 | 0.00 | 77 | 1008.3 |
| 20260903085413 | 49 | 279 | 0.0 | 1.7 | 0.00 | 0.14 | 0.00 | 78 | 1008.3 |
| 20260903084913 | 49 | 279 | 0.0 | 1.7 | 0.00 | 0.14 | 0.00 | 76 | 1008.3 |
| 20260903084413 | 49 | 279 | 0.0 | 2.6 | 0.00 | 0.14 | 0.00 | 77 | 1008.2 |
| 20260903083914 | 49 | 279 | 0.9 | 2.6 | 0.00 | 0.14 | 0.00 | 77 | 1008.3 |
| 20260903083413 | 49 | 289 | 0.9 | 5.2 | 0.00 | 0.14 | 0.00 | 77 | 1008.3 |
| 20260903082913 | 49 | 289 | 0.9 | 5.2 | 0.00 | 0.14 | 0.00 | 77 | 1008.2 |
| 20260903082413 | 49 | 350 | 0.0 | 1.7 | 0.00 | 0.14 | 0.00 | 78 | 1008.3 |
| 20260903081912 | 49 | 355 | 0.0 | 1.7 | 0.00 | 0.14 | 0.00 | 78 | 1008.4 |
| 20260903081411 | 49 | 351 | 0.9 | 3.5 | 0.00 | 0.14 | 0.00 | 77 | 1008.4 |
| 20260903080910 | 50 | 351 | 0.9 | 3.5 | 0.00 | 0.14 | 0.00 | 77 | 1008.3 |
| 20260903080420 | 50 | 336 | 0.9 | 3.5 | 0.00 | 0.14 | 0.00 | 77 | 1008.2 |
| 20260903075918 | 50 | 332 | 1.7 | 3.5 | 0.00 | 0.14 | 0.00 | 76 | 1008.1 |
| 20260903075409 | 50 | 310 | 1.7 | 7.0 | 0.00 | 0.14 | 0.00 | 77 | 1008.1 |
| 20260903074910 | 50 | 309 | 1.7 | 7.0 | 0.00 | 0.14 | 0.00 | 76 | 1008.2 |
| 20260903074408 | 50 | 296 | 2.6 | 8.7 | 0.00 | 0.14 | 0.00 | 77 | 1008.2 |
| 20260903073900 | 50 | 298 | 2.6 | 8.7 | 0.00 | 0.14 | 0.00 | 77 | 1008.2 |
| 20260903073354 | 51 | 332 | 2.6 | 7.8 | 0.00 | 0.14 | 0.00 | 77 | 1008.1 |
| 20260903073122 | 51 | 308 | 2.6 | 7.8 | 0.00 | 0.14 | 0.00 | 77 | 1008.2 |
| 20260903072342 | 51 | 286 | 3.5 | 7.8 | 0.00 | 0.14 | 0.00 | 77 | 1008.2 |
| 20260903071836 | 51 | 290 | 3.5 | 7.8 | 0.00 | 0.14 | 0.00 | 76 | 1008.2 |
| 20260903071330 | 51 | 259 | 3.5 | 8.7 | 0.00 | 0.14 | 0.00 | 76 | 1008.2 |
| 20260903070824 | 51 | 296 | 3.5 | 8.7 | 0.00 | 0.14 | 0.00 | 76 | 1008.0 |
| 20260903070319 | 51 | 286 | 2.6 | 8.7 | 0.00 | 0.14 | 0.00 | 76 | 1007.9 |
| 20260903065813 | 51 | 299 | 2.6 | 8.7 | 0.00 | 0.14 | 0.14 | 76 | 1007.9 |
| 20260903065308 | 51 | 277 | 3.5 | 8.7 | 0.00 | 0.14 | 0.14 | 77 | 1007.8 |
| 20260903064802 | 51 | 290 | 3.5 | 11.3 | 0.00 | 0.14 | 0.14 | 77 | 1007.7 |
| 20260903064259 | 50 | 247 | 1.7 | 11.3 | 0.00 | 0.14 | 0.14 | 79 | 1007.8 |
| 20260903063751 | 50 | 233 | 0.0 | 4.3 | 0.00 | 0.14 | 0.14 | 82 | 1007.8 |
| 20260903063522 | 50 | 203 | 0.9 | 4.3 | 0.00 | 0.14 | 0.14 | 82 | 1007.9 |
| 20260903062738 | 50 | 202 | 0.9 | 4.3 | 0.00 | 0.14 | 0.14 | 83 | 1007.8 |
| 20260903062241 | 50 | 133 | 0.0 | 1.7 | 0.00 | 0.14 | 0.14 | 85 | 1007.8 |
| 20260903061738 | 50 | 46 | 0.0 | 0.9 | 0.00 | 0.14 | 0.14 | 85 | 1007.8 |
| 20260903061239 | 50 | 46 | 0.0 | 1.7 | 0.00 | 0.14 | 0.14 | 84 | 1007.5 |
| 20260903060739 | 50 | 46 | 0.0 | 2.6 | 0.00 | 0.14 | 0.14 | 84 | 1007.5 |
| 20260903060239 | 50 | 44 | 0.0 | 2.6 | 0.00 | 0.14 | 0.14 | 85 | 1007.5 |
| 20260903060016 | 51 | 318 | 0.0 | 0.9 | 0.00 | 0.14 | 0.14 | 85 | 1007.7 |
| 20260903055306 | 51 | 318 | 0.9 | 2.6 | 0.01 | 0.14 | 0.14 | 85 | 1007.9 |
| 20260903055258 | 51 | 318 | 0.0 | 1.7 | 0.00 | 0.14 | 0.14 | 85 | 1007.8 |
| 20260903054234 | 51 | 318 | 0.9 | 2.6 | 0.01 | 0.14 | 0.14 | 85 | 1007.4 |
| 20260903053732 | 51 | 325 | 0.0 | 2.6 | 0.01 | 0.14 | 0.14 | 84 | 1007.5 |
| 20260903053233 | 51 | 307 | 0.0 | 0.0 | 0.01 | 0.14 | 0.14 | 83 | 1007.5 |
| 20260903052728 | 52 | 308 | 0.0 | 1.7 | 0.01 | 0.14 | 0.14 | 82 | 1007.2 |
| 20260903052226 | 52 | 308 | 0.9 | 3.5 | 0.01 | 0.14 | 0.14 | 82 | 1007.1 |
| 20260903051726 | 52 | 308 | 2.6 | 7.8 | 0.01 | 0.14 | 0.14 | 81 | 1007.1 |
| 20260903051226 | 52 | 290 | 2.6 | 8.7 | 0.01 | 0.14 | 0.14 | 81 | 1007.7 |
| 20260903051008 | 52 | 339 | 1.7 | 8.7 | 0.01 | 0.14 | 0.14 | 81 | 1007.9 |
| 20260903050225 | 52 | 296 | 1.7 | 6.1 | 0.01 | 0.14 | 0.14 | 81 | 1007.9 |
| 20260903045723 | 52 | 281 | 1.7 | 5.2 | 0.01 | 0.14 | 0.14 | 81 | 1007.7 |
| 20260903045232 | 52 | 291 | 1.7 | 4.3 | 0.01 | 0.14 | 0.14 | 81 | 1007.5 |
| 20260903044733 | 52 | 290 | 0.9 | 2.6 | 0.00 | 0.13 | 0.13 | 81 | 1007.4 |
| 20260903044224 | 52 | 290 | 0.9 | 3.5 | 0.00 | 0.13 | 0.13 | 81 | 1007.4 |
| 20260903043718 | 53 | 286 | 0.9 | 3.5 | 0.00 | 0.13 | 0.13 | 80 | 1007.3 |
| 20260903043210 | 53 | 241 | 0.9 | 3.5 | 0.00 | 0.13 | 0.13 | 79 | 1007.4 |
| 20260903042937 | 53 | 209 | 0.9 | 2.6 | 0.00 | 0.13 | 0.13 | 80 | 1007.3 |
| 20260903042159 | 53 | 207 | 1.7 | 4.3 | 0.00 | 0.13 | 0.13 | 79 | 1007.0 |
| 20260903041656 | 53 | 204 | 1.7 | 5.2 | 0.00 | 0.13 | 0.13 | 79 | 1006.9 |
| 20260903041154 | 53 | 191 | 0.9 | 5.2 | 0.00 | 0.13 | 0.13 | 79 | 1006.7 |
| 20260903040652 | 53 | 186 | 0.9 | 5.2 | 0.00 | 0.13 | 0.13 | 79 | 1006.7 |
| 20260903040152 | 53 | 192 | 1.7 | 5.2 | 0.00 | 0.13 | 0.13 | 79 | 1006.7 |
| 20260903035651 | 53 | 191 | 1.7 | 7.0 | 0.00 | 0.13 | 0.13 | 79 | 1006.5 |
| 20260903035152 | 53 | 179 | 1.7 | 7.0 | 0.00 | 0.13 | 0.13 | 79 | 1006.5 |
| 20260903034652 | 53 | 145 | 2.6 | 8.7 | 0.00 | 0.13 | 0.13 | 80 | 1006.5 |
| 20260903034152 | 52 | 213 | 2.6 | 8.7 | 0.00 | 0.13 | 0.13 | 80 | 1006.5 |
| 20260903033651 | 52 | 188 | 1.7 | 5.2 | 0.00 | 0.13 | 0.13 | 81 | 1006.5 |
| 20260903033430 | 52 | 183 | 1.7 | 5.2 | 0.00 | 0.13 | 0.13 | 80 | 1006.4 |
| 20260903032648 | 52 | 185 | 1.7 | 5.2 | 0.00 | 0.13 | 0.13 | 81 | 1006.2 |
| 20260903032148 | 52 | 180 | 1.7 | 7.8 | 0.00 | 0.13 | 0.13 | 80 | 1006.2 |
| 20260903031648 | 52 | 201 | 3.5 | 7.8 | 0.00 | 0.13 | 0.13 | 80 | 1006.4 |
| 20260903031147 | 52 | 187 | 3.5 | 7.8 | 0.00 | 0.13 | 0.13 | 80 | 1006.4 |
| 20260903030648 | 51 | 196 | 2.6 | 7.8 | 0.00 | 0.13 | 0.13 | 81 | 1006.4 |
| 20260903030147 | 51 | 201 | 2.6 | 7.0 | 0.00 | 0.13 | 0.13 | 81 | 1006.2 |
| 20260903025932 | 51 | 192 | 1.7 | 6.1 | 0.00 | 0.13 | 0.13 | 82 | 1006.1 |
| 20260903025148 | 51 | 191 | 0.9 | 4.3 | 0.00 | 0.13 | 0.13 | 82 | 1006.1 |
| 20260903024648 | 51 | 189 | 0.9 | 5.2 | 0.00 | 0.13 | 0.13 | 83 | 1006.1 |
| 20260903024146 | 51 | 150 | 0.9 | 5.2 | 0.00 | 0.13 | 0.13 | 83 | 1006.1 |
| 20260903023929 | 51 | 190 | 1.7 | 5.2 | 0.00 | 0.13 | 0.13 | 83 | 1006.1 |
| 20260903023146 | 51 | 148 | 1.7 | 7.8 | 0.00 | 0.13 | 0.13 | 84 | 1006.1 |
| 20260903022912 | 52 | 152 | 1.7 | 7.8 | 0.00 | 0.13 | 0.13 | 83 | 1006.0 |
| 20260903022209 | 52 | 145 | 2.6 | 8.7 | 0.01 | 0.13 | 0.13 | 83 | 1006.1 |
| 20260903022202 | 52 | 150 | 1.7 | 7.0 | 0.00 | 0.13 | 0.13 | 83 | 1006.2 |
| 20260903021144 | 52 | 158 | 3.5 | 13.0 | 0.01 | 0.13 | 0.13 | 82 | 1006.4 |
| 20260903020644 | 51 | 215 | 3.5 | 13.0 | 0.01 | 0.13 | 0.13 | 82 | 1005.9 |
| 20260903020412 | 51 | 147 | 1.7 | 6.1 | 0.02 | 0.13 | 0.13 | 90 | 1006.7 |
| 20260903015644 | 51 | 126 | 1.7 | 5.2 | 0.04 | 0.13 | 0.13 | 90 | 1006.6 |
| 20260903015424 | 51 | 125 | 1.7 | 5.2 | 0.05 | 0.13 | 0.13 | 90 | 1006.6 |
| 20260903014644 | 51 | 123 | 1.7 | 5.2 | 0.06 | 0.13 | 0.13 | 90 | 1006.5 |
| 20260903014143 | 51 | 143 | 0.9 | 3.5 | 0.07 | 0.13 | 0.13 | 89 | 1006.8 |
| 20260903013643 | 51 | 144 | 1.7 | 6.1 | 0.07 | 0.13 | 0.13 | 88 | 1006.7 |
| 20260903013422 | 51 | 180 | 2.6 | 6.1 | 0.08 | 0.13 | 0.13 | 86 | 1006.5 |
| 20260903012638 | 51 | 224 | 2.6 | 6.1 | 0.08 | 0.13 | 0.13 | 86 | 1006.2 |
| 20260903012131 | 51 | 194 | 2.6 | 7.8 | 0.08 | 0.13 | 0.13 | 87 | 1006.7 |
| 20260903011625 | 51 | 228 | 2.6 | 7.8 | 0.07 | 0.12 | 0.12 | 87 | 1007.1 |
| 20260903011119 | 51 | 240 | 3.5 | 7.0 | 0.07 | 0.12 | 0.12 | 87 | 1007.3 |
| 20260903010613 | 51 | 223 | 2.6 | 6.1 | 0.07 | 0.12 | 0.12 | 86 | 1007.4 |
| 20260903010109 | 52 | 227 | 3.5 | 7.0 | 0.06 | 0.11 | 0.11 | 85 | 1007.4 |
| 20260903005601 | 52 | 242 | 3.5 | 7.8 | 0.05 | 0.09 | 0.09 | 84 | 1007.5 |
| 20260903005056 | 53 | 259 | 4.3 | 13.0 | 0.04 | 0.08 | 0.08 | 82 | 1007.3 |
| 20260903004548 | 54 | 257 | 3.5 | 13.9 | 0.04 | 0.07 | 0.07 | 79 | 1007.1 |
| 20260903004043 | 55 | 263 | 2.6 | 13.9 | 0.03 | 0.06 | 0.06 | 80 | 1007.0 |
| 20260903003536 | 55 | 258 | 2.6 | 9.6 | 0.03 | 0.06 | 0.06 | 85 | 1007.1 |
| 20260903003031 | 55 | 298 | 1.7 | 9.6 | 0.02 | 0.05 | 0.05 | 85 | 1007.0 |
| 20260903002811 | 56 | 286 | 1.7 | 6.1 | 0.02 | 0.05 | 0.05 | 86 | 1006.9 |
| 20260903002019 | 56 | 286 | 1.7 | 6.1 | 0.02 | 0.05 | 0.05 | 85 | 1007.0 |
| 20260903001512 | 56 | 272 | 2.6 | 7.0 | 0.02 | 0.05 | 0.05 | 84 | 1006.8 |
| 20260903001015 | 56 | 258 | 3.5 | 7.0 | 0.02 | 0.05 | 0.05 | 83 | 1006.7 |
| 20260903000500 | 56 | 202 | 3.5 | 7.8 | 0.02 | 0.05 | 0.05 | 82 | 1006.6 |
| 20260902235955 | 56 | 196 | 4.3 | 9.6 | 0.01 | 0.04 | 0.05 | 81 | 1006.6 |
| 20260902235449 | 57 | 219 | 4.3 | 9.6 | 0.01 | 0.04 | 0.04 | 79 | 1006.5 |
| 20260902234947 | 58 | 219 | 3.5 | 8.7 | 0.00 | 0.03 | 0.04 | 77 | 1006.4 |
| 20260902234437 | 59 | 196 | 3.5 | 8.7 | 0.00 | 0.03 | 0.03 | 73 | 1006.1 |
| 20260902233931 | 59 | 209 | 3.5 | 8.7 | 0.00 | 0.03 | 0.03 | 72 | 1006.2 |
| 20260902233426 | 59 | 211 | 3.5 | 8.7 | 0.01 | 0.03 | 0.03 | 71 | 1006.0 |
| 20260902233158 | 59 | 178 | 3.5 | 8.7 | 0.01 | 0.03 | 0.03 | 72 | 1006.0 |
| 20260902232414 | 58 | 181 | 3.5 | 13.0 | 0.01 | 0.03 | 0.03 | 72 | 1006.0 |
| 20260902231909 | 58 | 198 | 3.5 | 13.0 | 0.01 | 0.03 | 0.03 | 72 | 1006.0 |
| 20260902231409 | 58 | 179 | 5.2 | 13.0 | 0.01 | 0.03 | 0.03 | 72 | 1006.0 |
| 20260902231404 | 58 | 178 | 4.3 | 13.0 | 0.01 | 0.03 | 0.03 | 72 | 1006.0 |
| 20260902230401 | 58 | 196 | 5.2 | 13.0 | 0.01 | 0.03 | 0.03 | 73 | 1006.0 |
| 20260902230356 | 58 | 142 | 4.3 | 13.0 | 0.01 | 0.03 | 0.03 | 72 | 1006.0 |
| 20260902225337 | 58 | 199 | 5.2 | 14.8 | 0.01 | 0.03 | 0.03 | 73 | 1005.9 |
| 20260902224831 | 58 | 206 | 5.2 | 14.8 | 0.01 | 0.03 | 0.03 | 73 | 1006.0 |
| 20260902224332 | 58 | 200 | 6.1 | 14.8 | 0.01 | 0.03 | 0.03 | 72 | 1006.0 |
| 20260902223833 | 58 | 132 | 6.1 | 14.8 | 0.01 | 0.03 | 0.03 | 72 | 1005.8 |
| 20260902223331 | 58 | 213 | 5.2 | 13.0 | 0.00 | 0.02 | 0.02 | 72 | 1005.6 |
| 20260902222830 | 58 | 178 | 5.2 | 14.8 | 0.00 | 0.02 | 0.02 | 72 | 1005.7 |
| 20260902222329 | 58 | 182 | 4.3 | 16.5 | 0.00 | 0.02 | 0.02 | 71 | 1005.7 |
| 20260902222109 | 58 | 196 | 5.2 | 16.5 | 0.00 | 0.02 | 0.02 | 71 | 1005.7 |
| 20260902221329 | 58 | 134 | 5.2 | 12.2 | 0.00 | 0.02 | 0.02 | 71 | 1005.7 |
| 20260902220829 | 57 | 221 | 4.3 | 12.2 | 0.00 | 0.02 | 0.02 | 72 | 1005.8 |
| 20260902220611 | 57 | 169 | 4.3 | 12.2 | 0.00 | 0.02 | 0.02 | 72 | 1005.8 |
| 20260902215829 | 57 | 146 | 3.5 | 10.4 | 0.00 | 0.02 | 0.02 | 73 | 1005.9 |
| 20260902215330 | 57 | 139 | 3.5 | 12.2 | 0.00 | 0.02 | 0.02 | 73 | 1006.0 |
| 20260902214830 | 57 | 163 | 4.3 | 12.2 | 0.00 | 0.02 | 0.02 | 72 | 1006.0 |
| 20260902214326 | 57 | 144 | 5.2 | 12.2 | 0.00 | 0.02 | 0.02 | 72 | 1005.9 |
| 20260902213824 | 56 | 179 | 4.3 | 12.2 | 0.00 | 0.02 | 0.02 | 72 | 1006.1 |
| 20260902213325 | 56 | 98 | 4.3 | 13.9 | 0.00 | 0.02 | 0.02 | 72 | 1006.1 |
| 20260902212825 | 56 | 120 | 4.3 | 13.9 | 0.00 | 0.02 | 0.02 | 73 | 1006.1 |
| 20260902212326 | 56 | 148 | 4.3 | 17.4 | 0.00 | 0.02 | 0.02 | 73 | 1006.2 |
| 20260902211835 | 56 | 144 | 4.3 | 17.4 | 0.00 | 0.02 | 0.02 | 73 | 1006.0 |
| 20260902211615 | 56 | 153 | 4.3 | 15.6 | 0.00 | 0.02 | 0.02 | 74 | 1006.2 |
| 20260902210833 | 55 | 161 | 4.3 | 14.8 | 0.00 | 0.02 | 0.02 | 75 | 1006.1 |
| 20260902210333 | 55 | 174 | 3.5 | 13.9 | 0.00 | 0.02 | 0.02 | 76 | 1006.2 |
| 20260902210109 | 55 | 133 | 4.3 | 13.9 | 0.00 | 0.02 | 0.02 | 77 | 1006.1 |
| 20260902205330 | 55 | 139 | 4.3 | 12.2 | 0.00 | 0.02 | 0.02 | 78 | 1006.1 |
| 20260902204831 | 55 | 180 | 4.3 | 14.8 | 0.00 | 0.02 | 0.02 | 78 | 1006.2 |
| 20260902204558 | 55 | 182 | 4.3 | 14.8 | 0.00 | 0.02 | 0.02 | 77 | 1006.4 |
| 20260902203842 | 55 | 174 | 4.3 | 13.0 | 0.00 | 0.02 | 0.02 | 76 | 1006.5 |
| 20260902203837 | 55 | 190 | 4.3 | 13.0 | 0.00 | 0.02 | 0.02 | 77 | 1006.5 |
| 20260902203056 | 55 | 159 | 5.2 | 11.3 | 0.00 | 0.02 | 0.02 | 76 | 1006.6 |
| 20260902202320 | 55 | 224 | 5.2 | 15.6 | 0.01 | 0.02 | 0.02 | 75 | 1006.6 |
| 20260902201821 | 55 | 177 | 5.2 | 15.6 | 0.01 | 0.02 | 0.02 | 76 | 1006.6 |
| 20260902201321 | 55 | 144 | 4.3 | 12.2 | 0.02 | 0.02 | 0.02 | 76 | 1006.6 |
| 20260902200821 | 55 | 160 | 5.2 | 12.2 | 0.02 | 0.02 | 0.02 | 77 | 1006.6 |
| 20260902200318 | 55 | 185 | 5.2 | 12.2 | 0.02 | 0.02 | 0.02 | 77 | 1006.7 |
| 20260902195838 | 55 | 191 | 3.5 | 12.2 | 0.02 | 0.02 | 0.02 | 78 | 1006.5 |
| 20260902195831 | 55 | 196 | 4.3 | 11.3 | 0.02 | 0.02 | 0.02 | 77 | 1006.6 |
| 20260902195034 | 55 | 171 | 3.5 | 12.2 | 0.02 | 0.02 | 0.02 | 80 | 1006.7 |
| 20260902194300 | 54 | 189 | 4.3 | 12.2 | 0.02 | 0.02 | 0.02 | 79 | 1006.7 |
| 20260902193754 | 54 | 211 | 4.3 | 12.2 | 0.02 | 0.02 | 0.02 | 81 | 1006.8 |
| 20260902193248 | 55 | 220 | 4.3 | 12.2 | 0.02 | 0.02 | 0.02 | 81 | 1006.7 |
| 20260902192742 | 55 | 178 | 4.3 | 11.3 | 0.01 | 0.01 | 0.02 | 80 | 1006.7 |
| 20260902192236 | 56 | 195 | 4.3 | 11.3 | 0.01 | 0.01 | 0.01 | 78 | 1006.7 |
| 20260902191732 | 56 | 142 | 3.5 | 11.3 | 0.01 | 0.01 | 0.01 | 77 | 1006.7 |
| 20260902191223 | 57 | 159 | 4.3 | 9.6 | 0.00 | 0.00 | 0.00 | 74 | 1006.8 |
| 20260902190718 | 57 | 181 | 6.1 | 12.2 | 0.00 | 0.00 | 0.00 | 70 | 1006.7 |
| 20260902190457 | 58 | 213 | 4.3 | 12.2 | 0.00 | 0.00 | 0.00 | 69 | 1006.5 |
| 20260902185936 | 58 | 164 | 3.5 | 11.3 | 0.00 | 0.00 | 0.00 | 70 | 1006.6 |
| 20260902185713 | 58 | 164 | 3.5 | 11.3 | 0.00 | 0.00 | 0.00 | 70 | 1006.6 |
| 20260902185200 | 58 | 198 | 3.5 | 11.3 | 0.00 | 0.00 | 0.00 | 66 | 1006.6 |
| 20260902184654 | 59 | 211 | 2.6 | 9.6 | 0.00 | 0.00 | 0.00 | 65 | 1006.5 |
| 20260902184148 | 60 | 188 | 2.6 | 9.6 | 0.00 | 0.00 | 0.00 | 63 | 1006.6 |
| 20260902183931 | 60 | 199 | 3.5 | 9.6 | 0.00 | 0.00 | 0.00 | 59 | 1006.5 |
| 20260902183136 | 61 | 148 | 3.5 | 11.3 | 0.00 | 0.00 | 0.00 | 57 | 1006.4 |
| 20260902182630 | 61 | 138 | 3.5 | 10.4 | 0.00 | 0.00 | 0.00 | 54 | 1006.4 |
| 20260902182418 | 61 | 176 | 3.5 | 9.6 | 0.00 | 0.00 | 0.00 | 54 | 1006.2 |
| 20260902182413 | 61 | 188 | 3.5 | 8.7 | 0.00 | 0.00 | 0.00 | 55 | 1006.4 |
| 20260902181356 | 60 | 140 | 3.5 | 10.4 | 0.00 | 0.00 | 0.00 | 55 | 1006.2 |
| 20260902180824 | 60 | 180 | 3.5 | 10.4 | 0.00 | 0.00 | 0.00 | 56 | 1006.2 |
| 20260902180609 | 60 | 180 | 3.5 | 10.4 | 0.00 | 0.00 | 0.00 | 56 | 1006.2 |
| 20260902180100 | 60 | 117 | 3.5 | 7.8 | 0.00 | 0.00 | 0.00 | 56 | 1006.4 |
| 20260902175554 | 60 | 186 | 4.3 | 11.3 | 0.00 | 0.00 | 0.00 | 57 | 1006.2 |
| 20260902175048 | 60 | 188 | 4.3 | 11.3 | 0.00 | 0.00 | 0.00 | 56 | 1006.4 |
| 20260902174543 | 60 | 144 | 4.3 | 11.3 | 0.00 | 0.00 | 0.00 | 56 | 1006.4 |
| 20260902174035 | 60 | 147 | 4.3 | 11.3 | 0.00 | 0.00 | 0.00 | 56 | 1006.4 |
| 20260902173530 | 60 | 134 | 4.3 | 14.8 | 0.00 | 0.00 | 0.00 | 56 | 1006.2 |
| 20260902173024 | 60 | 130 | 4.3 | 14.8 | 0.00 | 0.00 | 0.00 | 57 | 1006.4 |
| 20260902172519 | 61 | 186 | 4.3 | 11.3 | 0.00 | 0.00 | 0.00 | 57 | 1006.4 |
| 20260902172016 | 61 | 200 | 4.3 | 13.0 | 0.00 | 0.00 | 0.00 | 56 | 1006.4 |
| 20260902171510 | 61 | 163 | 5.2 | 13.0 | 0.00 | 0.00 | 0.00 | 56 | 1006.4 |
| 20260902171001 | 61 | 150 | 5.2 | 13.0 | 0.00 | 0.00 | 0.00 | 56 | 1006.4 |
| 20260902170454 | 61 | 212 | 4.3 | 10.4 | 0.00 | 0.00 | 0.00 | 57 | 1006.2 |
| 20260902165948 | 61 | 205 | 5.2 | 11.3 | 0.00 | 0.00 | 0.00 | 57 | 1006.2 |
| 20260902165442 | 61 | 185 | 4.3 | 12.2 | 0.00 | 0.00 | 0.00 | 57 | 1006.2 |
| 20260902164936 | 61 | 113 | 4.3 | 11.3 | 0.00 | 0.00 | 0.00 | 57 | 1006.4 |
| 20260902164718 | 61 | 150 | 5.2 | 11.3 | 0.00 | 0.00 | 0.00 | 58 | 1006.4 |
| 20260902164015 | 61 | 240 | 5.2 | 11.3 | 0.00 | 0.00 | 0.00 | 59 | 1006.4 |
| 20260902163959 | 61 | 182 | 5.2 | 11.3 | 0.00 | 0.00 | 0.00 | 58 | 1006.4 |
| 20260902162945 | 61 | 197 | 5.2 | 13.0 | 0.00 | 0.00 | 0.00 | 59 | 1006.6 |
| 20260902162445 | 61 | 250 | 5.2 | 13.0 | 0.00 | 0.00 | 0.00 | 59 | 1006.6 |
| 20260902161943 | 61 | 198 | 4.3 | 12.2 | 0.00 | 0.00 | 0.00 | 59 | 1006.6 |
| 20260902161714 | 61 | 193 | 4.3 | 12.2 | 0.00 | 0.00 | 0.00 | 58 | 1006.6 |
| 20260902160943 | 61 | 219 | 4.3 | 10.4 | 0.00 | 0.00 | 0.00 | 59 | 1006.5 |
| 20260902160442 | 61 | 189 | 4.3 | 9.6 | 0.00 | 0.00 | 0.00 | 59 | 1006.6 |
| 20260902160216 | 61 | 178 | 3.5 | 9.6 | 0.00 | 0.00 | 0.00 | 60 | 1006.7 |
| 20260902155439 | 61 | 174 | 3.5 | 9.6 | 0.00 | 0.00 | 0.00 | 60 | 1006.7 |
| 20260902154936 | 60 | 190 | 3.5 | 10.4 | 0.00 | 0.00 | 0.00 | 61 | 1006.7 |
| 20260902154437 | 60 | 182 | 3.5 | 10.4 | 0.00 | 0.00 | 0.00 | 61 | 1006.8 |
| 20260902153936 | 60 | 188 | 3.5 | 10.4 | 0.00 | 0.00 | 0.00 | 63 | 1006.8 |
| 20260902153434 | 59 | 186 | 3.5 | 10.4 | 0.00 | 0.00 | 0.00 | 63 | 1006.9 |
| 20260902152935 | 58 | 173 | 2.6 | 8.7 | 0.00 | 0.00 | 0.00 | 67 | 1006.9 |
| 20260902152433 | 57 | 174 | 1.7 | 7.0 | 0.00 | 0.00 | 0.00 | 70 | 1007.0 |
| 20260902151932 | 56 | 148 | 0.9 | 6.1 | 0.00 | 0.00 | 0.00 | 72 | 1007.0 |
| 20260902151432 | 55 | 145 | 0.0 | 0.9 | 0.00 | 0.00 | 0.00 | 73 | 1007.2 |
| 20260902150932 | 55 | 145 | 0.0 | 3.5 | 0.00 | 0.00 | 0.00 | 74 | 1007.3 |
| 20260902150431 | 54 | 145 | 0.9 | 3.5 | 0.00 | 0.00 | 0.00 | 75 | 1007.2 |
| 20260902145932 | 54 | 134 | 0.0 | 2.6 | 0.00 | 0.00 | 0.00 | 75 | 1007.2 |
| 20260902145429 | 53 | 138 | 0.0 | 0.9 | 0.00 | 0.00 | 0.00 | 76 | 1007.3 |
| 20260902144929 | 53 | 138 | 0.0 | 0.9 | 0.00 | 0.00 | 0.00 | 77 | 1007.3 |
| 20260902144431 | 53 | 138 | 0.0 | 0.9 | 0.00 | 0.00 | 0.00 | 78 | 1007.3 |
| 20260902143929 | 53 | 138 | 0.0 | 0.9 | 0.00 | 0.00 | 0.00 | 78 | 1007.3 |
| 20260902143431 | 52 | 138 | 0.0 | 1.7 | 0.00 | 0.00 | 0.00 | 79 | 1007.4 |
| 20260902142931 | 52 | 138 | 0.0 | 1.7 | 0.00 | 0.00 | 0.00 | 79 | 1007.4 |
| 20260902142430 | 52 | 138 | 0.0 | 0.0 | 0.00 | 0.00 | 0.00 | 80 | 1007.4 |
| 20260902141939 | 52 | 138 | 0.0 | 0.0 | 0.00 | 0.00 | 0.00 | 80 | 1007.4 |
| 20260902141721 | 52 | 138 | 0.0 | 0.0 | 0.00 | 0.00 | 0.00 | 79 | 1007.7 |
| 20260902140928 | 52 | 138 | 0.0 | 0.9 | 0.00 | 0.00 | 0.00 | 79 | 1007.7 |
| 20260902140427 | 51 | 138 | 0.0 | 1.7 | 0.00 | 0.00 | 0.00 | 80 | 1007.7 |
| 20260902135926 | 51 | 138 | 0.0 | 2.6 | 0.00 | 0.00 | 0.00 | 80 | 1007.5 |
| 20260902135426 | 51 | 138 | 0.0 | 2.6 | 0.00 | 0.00 | 0.00 | 80 | 1007.5 |
| 20260902135204 | 51 | 138 | 0.9 | 3.5 | 0.00 | 0.00 | 0.00 | 80 | 1007.5 |
| 20260902134421 | 51 | 139 | 0.9 | 3.5 | 0.00 | 0.00 | 0.00 | 80 | 1007.7 |
| 20260902133921 | 51 | 136 | 0.9 | 3.5 | 0.00 | 0.00 | 0.00 | 80 | 1007.5 |
| 20260902133415 | 51 | 140 | 0.9 | 3.5 | 0.00 | 0.00 | 0.00 | 80 | 1007.7 |
| 20260902132910 | 51 | 138 | 1.7 | 3.5 | 0.00 | 0.00 | 0.00 | 80 | 1007.8 |
| 20260902132403 | 51 | 144 | 0.9 | 3.5 | 0.00 | 0.00 | 0.00 | 81 | 1007.5 |
| 20260902131908 | 51 | 146 | 0.9 | 2.6 | 0.00 | 0.00 | 0.00 | 80 | 1007.8 |
| 20260902130844 | 51 | 149 | 0.0 | 2.6 | 0.00 | 0.00 | 0.00 | 80 | 1007.9 |
| 20260902130339 | 51 | 148 | 0.9 | 2.6 | 0.00 | 0.00 | 0.00 | 80 | 1007.9 |
| 20260902125833 | 51 | 148 | 0.9 | 2.6 | 0.00 | 0.00 | 0.00 | 79 | 1008.0 |
| 20260902125327 | 51 | 149 | 0.9 | 3.5 | 0.00 | 0.00 | 0.00 | 79 | 1008.1 |
| 20260902124821 | 51 | 150 | 0.9 | 3.5 | 0.00 | 0.00 | 0.00 | 79 | 1008.1 |
| 20260902124315 | 52 | 157 | 0.9 | 2.6 | 0.00 | 0.00 | 0.00 | 79 | 1008.1 |
| 20260902123809 | 52 | 157 | 0.9 | 2.6 | 0.00 | 0.00 | 0.00 | 79 | 1008.1 |
| 20260902123306 | 52 | 157 | 0.0 | 1.7 | 0.00 | 0.00 | 0.00 | 79 | 1008.1 |
| 20260902122758 | 52 | 157 | 0.0 | 0.0 | 0.00 | 0.00 | 0.00 | 80 | 1008.2 |
| 20260902122252 | 51 | 157 | 0.0 | 0.0 | 0.00 | 0.00 | 0.00 | 80 | 1008.1 |
| 20260902121745 | 51 | 157 | 0.0 | 0.9 | 0.00 | 0.00 | 0.00 | 80 | 1008.1 |
| 20260902121240 | 51 | 157 | 0.0 | 0.9 | 0.00 | 0.00 | 0.00 | 80 | 1008.2 |
| 20260902120740 | 51 | 158 | 0.0 | 0.9 | 0.00 | 0.00 | 0.00 | 80 | 1008.2 |
| 20260902120240 | 51 | 158 | 0.0 | 0.9 | 0.00 | 0.00 | 0.00 | 81 | 1008.2 |
| 20260902115740 | 51 | 158 | 0.0 | 1.7 | 0.00 | 0.00 | 0.00 | 81 | 1008.4 |
| 20260902115246 | 51 | 158 | 0.0 | 1.7 | 0.00 | 0.00 | 0.00 | 81 | 1008.5 |
| 20260902114736 | 50 | 158 | 0.0 | 2.6 | 0.00 | 0.00 | 0.00 | 82 | 1008.5 |
| 20260902114235 | 50 | 153 | 0.0 | 2.6 | 0.00 | 0.00 | 0.00 | 82 | 1008.5 |
| 20260902113735 | 50 | 153 | 0.0 | 1.7 | 0.00 | 0.00 | 0.00 | 82 | 1008.5 |
| 20260902113235 | 50 | 147 | 0.0 | 1.7 | 0.00 | 0.00 | 0.00 | 81 | 1008.5 |
| 20260902112735 | 50 | 146 | 0.9 | 1.7 | 0.00 | 0.00 | 0.00 | 81 | 1008.4 |